TimePDT,TemperatureF,Dew PointF,Humidity,Sea Level PressureIn,VisibilityMPH,Wind Direction,Wind SpeedMPH,Gust SpeedMPH,PrecipitationIn,Events,Conditions,WindDirDegrees,DateUTC
12:53 AM,42.8,32.0,66,29.98,10.0,WNW,5.8,-,N/A,,Clear,290,2012-10-09 07:53:00
1:53 AM,44.1,34.0,68,30.00,10.0,WNW,9.2,-,N/A,,Clear,290,2012-10-09 08:53:00
2:53 AM,43.0,33.1,68,30.01,10.0,WNW,10.4,-,N/A,,Clear,290,2012-10-09 09:53:00
3:53 AM,41.0,33.1,73,30.02,10.0,WNW,6.9,-,N/A,,Clear,290,2012-10-09 10:53:00
4:53 AM,42.1,33.1,70,30.02,10.0,West,9.2,-,N/A,,Clear,280,2012-10-09 11:53:00
5:53 AM,39.9,33.1,77,30.04,10.0,West,9.2,-,N/A,,Clear,280,2012-10-09 12:53:00
6:53 AM,39.9,32.0,73,30.06,10.0,West,8.1,-,N/A,,Clear,260,2012-10-09 13:53:00
7:53 AM,41.0,34.0,76,30.08,10.0,WNW,5.8,-,N/A,,Clear,290,2012-10-09 14:53:00
8:53 AM,51.1,37.0,59,30.09,10.0,West,5.8,-,N/A,,Clear,260,2012-10-09 15:53:00
9:53 AM,60.1,37.0,42,30.09,10.0,WNW,6.9,-,N/A,,Clear,290,2012-10-09 16:53:00
10:53 AM,64.9,37.9,37,30.08,10.0,Calm,Calm,-,N/A,,Clear,0,2012-10-09 17:53:00
11:53 AM,68.0,39.0,35,30.06,10.0,Calm,Calm,-,N/A,,Clear,0,2012-10-09 18:53:00
12:53 PM,73.9,36.0,25,30.04,10.0,Calm,Calm,-,N/A,,Clear,0,2012-10-09 19:53:00
1:53 PM,75.0,35.1,23,30.02,10.0,SSE,5.8,-,N/A,,Clear,160,2012-10-09 20:53:00
2:53 PM,75.0,35.1,23,30.01,10.0,South,4.6,-,N/A,,Clear,180,2012-10-09 21:53:00
3:53 PM,75.9,36.0,23,30.00,10.0,ESE,4.6,-,N/A,,Clear,120,2012-10-09 22:53:00
4:53 PM,73.9,37.0,26,29.99,10.0,SSE,4.6,-,N/A,,Clear,160,2012-10-09 23:53:00
5:53 PM,72.0,39.0,30,29.99,10.0,Calm,Calm,-,N/A,,Clear,0,2012-10-10 00:53:00
6:53 PM,62.1,37.0,39,29.99,10.0,Calm,Calm,-,N/A,,Clear,0,2012-10-10 01:53:00
7:53 PM,55.0,39.9,57,30.01,10.0,North,-9999.0,-,N/A,,Clear,0,2012-10-10 02:53:00
8:53 PM,51.1,37.9,61,30.01,10.0,WNW,5.8,-,N/A,,Clear,300,2012-10-10 03:53:00
9:53 PM,46.9,37.0,68,30.00,10.0,West,5.8,-,N/A,,Clear,280,2012-10-10 04:53:00
10:53 PM,46.0,37.0,71,30.00,10.0,WNW,3.5,-,N/A,,Clear,290,2012-10-10 05:53:00
11:53 PM,44.1,35.1,71,30.00,10.0,West,8.1,-,N/A,,Clear,280,2012-10-10 06:53:00